Location: Sungai Bunut
(2.6333°N, 113.7333°E)
Time: 20:28:57
(UTC+00:00)

Courier 1B - All Passes

Search period start: 06 December 2023 00:00
Search period end: 16 December 2023 00:00
Orbit: 962 x 1208 km, 28.3° (Epoch: 06 December)

Date Brightness Start Highest point End Pass type
(mag) Time Alt. Az. Time Alt. Az. Time Alt. Az.
06 Dec - 01:09:38 10° NW 01:11:36 11° NNW 01:13:32 10° N daylight
06 Dec - 06:53:59 10° NNW 06:59:13 25° NNE 07:04:35 10° E daylight
06 Dec - 08:46:48 10° WNW 08:53:25 89° NNE 09:00:26 10° ESE daylight
06 Dec - 10:42:08 10° W 10:47:44 26° SSW 10:53:37 10° SSE visible
06 Dec - 18:28:35 10° SSW 18:33:25 17° SSE 18:38:09 10° ESE visible
06 Dec - 20:20:44 10° SW 20:28:17 53° SSE 20:35:27 10° ENE visible
06 Dec - 22:15:25 10° WSW 22:22:38 48° NNW 22:29:26 10° NE daylight
07 Dec - 00:13:24 10° WNW 00:17:22 15° NNW 00:21:14 10° NNE daylight
07 Dec - 06:00:54 10° NNW 06:05:15 19° NNE 06:09:38 10° ENE daylight
07 Dec - 07:53:09 10° NW 07:59:36 64° NNE 08:06:21 10° ESE daylight
07 Dec - 09:47:42 10° W 09:53:44 36° SSW 10:00:07 10° SE daylight
07 Dec - 11:47:08 10° SW 11:48:43 11° SSW 11:50:20 10° S visible
07 Dec - 17:35:54 10° S 17:39:05 13° SSE 17:42:14 10° SE visible
07 Dec - 19:27:00 10° SW 19:34:13 39° SSE 19:41:10 10° E visible
07 Dec - 21:21:00 10° WSW 21:28:39 66° NNW 21:35:51 10° NE visible
07 Dec - 23:17:55 10° WNW 23:23:13 21° NNW 23:28:19 10° NNE daylight
08 Dec - 05:08:03 10° N 05:11:10 14° NNE 05:14:18 10° NE daylight
08 Dec - 06:59:39 10° NW 07:05:47 45° NNE 07:12:07 10° E daylight
08 Dec - 08:53:31 10° WNW 08:59:50 49° SSW 09:06:30 10° SE daylight
08 Dec - 10:50:53 10° SW 10:54:29 15° SSW 10:58:11 10° S visible
08 Dec - 18:33:26 10° SSW 18:40:06 29° SSE 18:46:35 10° E visible
08 Dec - 20:26:48 10° WSW 20:34:39 89° NNW 20:42:06 10° ENE visible
08 Dec - 22:22:48 10° W 22:29:06 28° NNW 22:35:08 10° NNE daylight
09 Dec - 04:16:05 10° N 04:17:00 10° NNE 04:17:53 10° NNE daylight
09 Dec - 06:06:15 10° NW 06:11:56 32° NNE 06:17:41 10° E daylight
09 Dec - 07:59:33 10° WNW 08:06:00 70° SSW 08:12:46 10° SE daylight
09 Dec - 09:55:42 10° WSW 10:00:22 20° SSW 10:05:13 10° SSE daylight
09 Dec - 17:40:06 10° SSW 17:45:54 22° SSE 17:51:38 10° ESE visible
09 Dec - 19:32:46 10° SW 19:40:36 69° SSE 19:48:09 10° ENE visible
09 Dec - 21:27:59 10° W 21:35:03 39° NNW 21:41:47 10° NE visible
09 Dec - 23:26:54 10° NW 23:30:06 13° NNW 23:33:14 10° N daylight
10 Dec - 05:12:58 10° NNW 05:18:01 23° NNE 05:23:03 10° ENE daylight
10 Dec - 07:05:45 10° WNW 07:12:14 84° NNE 07:18:53 10° ESE daylight
10 Dec - 09:00:58 10° W 09:06:22 27° SSW 09:11:59 10° SSE daylight
10 Dec - 16:47:05 10° S 16:51:38 16° SSE 16:56:12 10° ESE night (unlit)
10 Dec - 18:38:56 10° SW 18:46:32 51° SSE 18:53:58 10° ENE visible
10 Dec - 20:33:25 10° WSW 20:40:59 53° NNW 20:48:15 10° NE visible
10 Dec - 22:31:04 10° WNW 22:35:50 18° NNW 22:40:27 10° NNE daylight
11 Dec - 04:19:48 10° NNW 04:24:00 18° NNE 04:28:09 10° ENE daylight
11 Dec - 06:12:05 10° NW 06:18:27 59° NNE 06:24:52 10° ESE daylight
11 Dec - 08:06:35 10° W 08:12:28 37° SSW 08:18:35 10° SE daylight
11 Dec - 10:06:12 10° SSW 10:07:15 10° SSW 10:08:19 10° SSW daylight
11 Dec - 15:54:46 10° S 15:57:18 12° SSE 15:59:51 10° SE night (unlit)
11 Dec - 17:45:18 10° SW 17:52:27 37° SSE 17:59:31 10° E night (unlit)
11 Dec - 19:39:04 10° WSW 19:46:56 71° NNW 19:54:33 10° NE visible
11 Dec - 21:35:42 10° WNW 21:41:37 24° NNW 21:47:20 10° NNE visible
12 Dec - 03:26:49 10° N 03:29:53 13° NNE 03:32:53 10° NE daylight
12 Dec - 05:18:31 10° NW 05:24:38 42° NNE 05:30:42 10° E daylight
12 Dec - 07:12:24 10° WNW 07:18:39 52° SSW 07:25:03 10° SE daylight
12 Dec - 09:09:42 10° SW 09:13:06 14° SSW 09:16:35 10° S daylight
12 Dec - 16:51:52 10° SSW 16:58:18 28° SSE 17:04:46 10° E night (unlit)
12 Dec - 18:44:57 10° WSW 18:52:52 86° SSE 19:00:39 10° ENE visible
12 Dec - 20:40:42 10° W 20:47:27 31° NNW 20:54:00 10° NNE visible
12 Dec - 22:40:37 10° NW 22:42:51 11° NNW 22:45:03 10° N daylight
13 Dec - 02:34:32 10° N 02:35:38 10° NNE 02:36:45 10° NNE daylight
13 Dec - 04:25:03 10° NNW 04:30:45 30° NNE 04:36:20 10° E daylight
13 Dec - 06:18:24 10° WNW 06:24:52 74° SSW 06:31:23 10° SE daylight
13 Dec - 08:14:30 10° WSW 08:19:04 20° SSW 08:23:45 10° SSE daylight
13 Dec - 15:58:42 10° SSW 16:04:07 20° SSE 16:09:37 10° ESE night (unlit)
13 Dec - 17:51:03 10° SW 17:58:48 65° SSE 18:06:33 10° ENE night (unlit)
13 Dec - 19:45:59 10° W 19:53:19 42° NNW 20:00:30 10° NE visible
13 Dec - 21:44:22 10° NW 21:48:28 15° NNW 21:52:29 10° NNE visible
14 Dec - 03:31:39 10° NNW 03:36:47 23° NNE 03:41:46 10° ENE daylight
14 Dec - 05:24:32 10° NW 05:31:06 79° NNE 05:37:35 10° ESE daylight
14 Dec - 07:19:46 10° W 07:25:08 28° SSW 07:30:36 10° SSE daylight
14 Dec - 15:05:56 10° S 15:09:53 15° SSE 15:13:54 10° ESE visible
14 Dec - 16:57:20 10° SW 17:04:44 47° SSE 17:12:14 10° ENE night (unlit)
14 Dec - 18:51:32 10° WSW 18:59:13 57° NNW 19:06:49 10° NE visible
14 Dec - 20:48:46 10° WNW 20:54:09 20° NNW 20:59:24 10° NNE visible
15 Dec - 02:38:22 10° NNW 02:42:42 17° NNE 02:46:55 10° ENE daylight
15 Dec - 04:30:48 10° NW 04:37:18 56° NNE 04:43:38 10° ESE daylight
15 Dec - 06:25:19 10° W 06:31:18 39° SSW 06:37:18 10° SE daylight
15 Dec - 08:24:57 10° SSW 08:25:54 10° SSW 08:26:51 10° SSW daylight
15 Dec - 14:14:56 10° SSE 14:15:35 10° SSE 14:16:14 10° SSE visible
15 Dec - 16:03:50 10° SSW 16:10:39 35° SSE 16:17:38 10° E night (unlit)
15 Dec - 17:57:19 10° WSW 18:05:07 76° NNW 18:12:58 10° NE night (unlit)
15 Dec - 19:53:35 10° WNW 19:59:53 26° NNW 20:06:05 10° NNE visible
15 Dec - 21:55:21 10° NNW 21:55:38 10° NNW 21:55:54 10° NNW visible
